Simultaneous Nadir Overpasses (SNOs) Predictions

Prediction of SNOs between AURA and NPP Satellite Orbit:

Table of predicted SNOs for the next 14.0 days since TLE Epoch: 8/22/2014
Index Date (AURA) Time (AURA) Lat,Lon (AURA) SZA (AURA ) Date (NPP) Time (NPP) Lat,Lon (NPP) SZA (NPP ) Distance(km) Time Diff (sec)
1 08/23/2014 06:30:07 -75.35, 141.78 93.56 08/23/2014 06:29:45 -75.34, 141.74 93.54 1.09 22
2 08/23/2014 07:19:12 76.34, -47.60 85.32 08/23/2014 07:20:08 76.33, -47.65 85.29 1.74 56
3 08/25/2014 21:57:17 74.75, 88.47 87.94 08/25/2014 21:56:11 74.76, 88.49 88.00 0.59 66
4 08/25/2014 22:46:20 -76.00,-100.44 93.44 08/25/2014 22:46:30 -76.01,-100.35 93.47 2.78 10
5 08/28/2014 14:13:36 75.15,-154.63 88.38 08/28/2014 14:13:03 75.15,-154.62 88.41 0.21 33
6 08/28/2014 15:02:40 -76.33, 16.49 92.94 08/28/2014 15:03:23 -76.34, 16.58 93.00 2.67 43
7 08/31/2014 05:43:25 -66.09, 139.06 81.48 08/31/2014 05:42:11 -66.26, 138.16 81.26 44.88 74
8 08/31/2014 06:29:52 75.67, -37.29 88.69 08/31/2014 06:29:52 75.67, -37.24 88.68 1.63 0
9 08/31/2014 07:17:10 -80.92, 160.50 98.48 08/31/2014 07:18:24 -80.58, 161.37 98.66 41.00 74
10 09/02/2014 21:57:09 -74.87, -91.23 89.53 09/02/2014 21:56:25 -74.87, -91.23 89.50 0.10 44
11 09/02/2014 22:46:13 75.91, 79.33 89.32 09/02/2014 22:46:47 75.91, 79.30 89.30 0.99 34
12 09/05/2014 14:13:25 -75.30, 25.81 89.10 09/05/2014 14:13:15 -75.30, 25.79 89.08 0.71 10
